Home > Weather > Danmarkshavn > Past weeks

Flag for Greenland Weather for the Past 2 Weeks in Danmarkshavn, Greenland

Now
-21 °F

Sunny.


Feels Like: -48 °F
Forecast: -26 / -23 °F
Wind: 16 mph from West

Location: Danmarkshavn

Current Time: Feb 10, 2016 at 11:37:04 AM

Latest Report: Feb 10, 2016 at 10:00 AM


Visibility: 31 mi

Pressure: 29.97 "Hg

Humidity: 66%

Dew point: -29 °F

Location of DanmarkshavnLocation

Historic Weather in Danmarkshavn — Graph

°F

Danmarkshavn Temperature Yesterday

Maximum temperature yesterday: -16 °F (at 9:00 PM)
Minimum temperature yesterday: -26 °F (at 6:00 PM)
Average temperature yesterday: -21 °F

High & Low Weather Summary for the Past Weeks

 TemperatureHumidityPressure
High30 °F (Jan 26, 10:00 AM)94% (Jan 26, 10:00 AM)30.28 "Hg (Jan 26, 10:00 AM)
Low-26 °F (Feb 9, 6:00 PM)45% (Feb 4, 11:00 AM)29.06 "Hg (Jan 26, 10:00 AM)
Average2 °F71%29.77 "Hg
* Reported Jan 26 10:00 AM — Feb 10 10:00 AM, Danmarkshavn, Weather by CustomWeather, © 2016

Note: Actual official high and low records may vary slightly from our data, if they occured in-between our weather recording intervals... More about our weather records

Advertising

Danmarkshavn Weather History for the Previous 24 Hours

 ConditionsComfort  
Time TempWeatherWind HumidityBarometerVisibility
10:00 AM
Wed, Feb 10
-21 °FSunny.16 mph66%29.97 "Hg31 mi
9:00 AM-21 °FSunny.8 mph67%29.99 "Hg31 mi
8:00 AM-19 °FSunny.9 mph60%29.98 "Hg31 mi
7:00 AM-18 °FSunny.10 mph62%29.99 "Hg31 mi
6:00 AM-19 °FClear.6 mph61%30.00 "Hg31 mi
5:00 AM-19 °FClear.13 mph61%30.00 "Hg31 mi
3:00 AM-22 °FClear.8 mph63%30.01 "Hg31 mi
2:00 AM-17 °FClear.14 mph56%30.01 "Hg31 mi
11:00 PM
Tue, Feb 9
-16 °FClear.7 mph57%30.00 "Hg31 mi
10:00 PM-17 °FClear.14 mph60%30.00 "Hg31 mi
9:00 PM-16 °FSnow flurries. Clear.16 mph54%29.99 "Hg18 mi
8:00 PM-19 °FClear.15 mph57%29.98 "Hg19 mi
7:00 PM-24 °FSunny.1 mph70%29.98 "Hg31 mi
6:00 PM-26 °FSunny.1 mph68%29.98 "Hg31 mi
5:00 PM-23 °FSunny.No wind69%29.97 "Hg31 mi
4:00 PM-26 °FPassing clouds.1 mph70%29.97 "Hg31 mi
Weather by CustomWeather, © 2016

See weather overviewHow to use our weather pages